Location: Knowlton
(51.2333°N, 1.2667°E)
Time: 04:07:58
(UTC+00:00)

Cosmos 2219 Rocket - Pass Details

Date: 18 April 2021
Orbit: 826 x 848 km, 71.0° (Epoch: 06 May)

Event Time Altitude Azimuth Distance (km) Brightness Sun altitude
Rises 20:49:45 0° 323° (NW) 3,422 7.1 -16.0°
Reaches altitude 10° 20:52:31 10° 312° (NW) 2,482 6.0 -16.3°
Maximum altitude 20:57:13 27° 256° (WSW) 1,567 3.9 -16.8°
Drops below altitude 10° 21:01:54 10° 200° (SSW) 2,465 4.4 -17.3°
Enters shadow 21:03:00 - 195° (SSW) 2,823 4.6 -17.5°
